Location: *
(49.5667°N, 1.3667°W)
Time: 12:54:57
(UTC+00:00)

Cosmos 2366 rocket - Pass Details

Date: 20 September 2019
Orbit: 956 x 996 km, 82.9° (Epoch: 18 October)

Event Time Altitude Azimuth Distance (km) Brightness Sun altitude
Rises 19:36:41 0° 352° (N) 3,726 7.4 -14.8°
Reaches altitude 10° 19:39:16 10° 356° (N) 2,775 6.7 -15.2°
Maximum altitude 19:45:34 59° 76° (ENE) 1,141 4.1 -16.2°
Enters shadow 19:50:41 16° 153° (SSE) 2,347 5.6 -16.9°
